Tacoma, WA

7:42 PM PST on February 24, 2017 (GMT -0800)
McChord Air Force Base

Weather History for KTCM - March, 2014

Change the Weather History Date:

Wednesday, March 26, 2014

  Actual Average Record
Temperature  
Mean Temperature 42 °F -  
Max Temperature 50 °F 52 °F 73 °F (1969)
Min Temperature 35 °F 34 °F 25 °F (1995)
Degree Days  
Heating Degree Days 22    
Moisture  
Dew Point 41 °F    
Average Humidity 97    
Maximum Humidity 100    
Minimum Humidity 82    
Precipitation  
Precipitation 0.16 in - - ()
Sea Level Pressure  
Sea Level Pressure 29.58 in    
Wind  
Wind Speed 3 mph (SSE)    
Max Wind Speed 12 mph    
Max Gust Speed -    
Visibility 6 miles    
Events Rain    
Averages and records for this station are not official NWS values.
T = Trace of Precipitation, MM = Missing Value Source: NWS Daily Summary

Daily Weather History Graph

Daily Weather History Graph

Search for Another Location

Airport or City:

Trip Planner

Search our weather history database for the weather conditions in past years. The results will help you decide how hot, cold, wet, or windy it might be!

Date:

Astronomy

Mar. 26, 2014 Rise Set
Actual Time 7:00 AM PDT 7:31 PM PDT
Civil Twilight 6:30 AM PDT 8:01 PM PDT
Nautical Twilight 5:53 AM PDT 8:38 PM PDT
Astronomical Twilight 5:16 AM PDT 9:16 PM PDT
Moon 4:29 AM PDT (3/26) 3:00 PM PDT (3/26)
Length of Visible Light 13h 31m
Length of Day
12h 30m
Waning Crescent, 21% of the Moon is Illuminated
Mar 26
Waning Crescent
Mar 30
New
Apr 7
First Quarter
Apr 15
Full
Apr 22
Last Quarter

Hourly Weather History & Observations

Time (PDT) Temp. Windchill Dew Point Humidity Pressure Visibility Wind Dir Wind Speed Gust Speed Precip Events Conditions
12:58 AM 43.5 °F 38.9 °F 41.7 °F 93% 29.66 in 10.0 mi SSW 8.1 mph - N/A   Overcast
1:58 AM 39.9 °F - 39.7 °F 99% 29.65 in 10.0 mi South 2.3 mph - N/A   Partly Cloudy
2:58 AM 38.1 °F - 37.9 °F 99% 29.65 in 10.0 mi Calm Calm - N/A   Partly Cloudy
3:13 AM 37.4 °F - 37.4 °F 100% 29.62 in 1.8 mi Calm Calm - N/A   Clear
3:18 AM 37.4 °F - 37.4 °F 100% 29.62 in 1.0 mi Calm Calm - N/A   Clear
3:23 AM 35.6 °F - 35.6 °F 100% 29.62 in 1.5 mi Calm Calm - N/A   Clear
3:28 AM 35.6 °F - 35.6 °F 100% 29.62 in 1.8 mi Calm Calm - N/A   Partly Cloudy
3:33 AM 35.6 °F - 35.6 °F 100% 29.62 in 1.2 mi Calm Calm - N/A   Partly Cloudy
3:38 AM 35.6 °F - 35.6 °F 100% 29.62 in 1.0 mi Calm Calm - N/A   Clear
3:43 AM 35.6 °F - 35.6 °F 100% 29.62 in 1.8 mi Calm Calm - N/A   Clear
3:48 AM 37.4 °F - 37.4 °F 100% 29.62 in 2.0 mi Calm Calm - N/A   Clear
3:53 AM 35.6 °F - 35.6 °F 100% 29.62 in 1.0 mi Calm Calm - N/A   Partly Cloudy
3:58 AM 35.6 °F - 33.8 °F 93% 29.64 in 1.0 mi Calm Calm - N/A   Partly Cloudy
4:03 AM 35.6 °F 32.8 °F 33.8 °F 93% 29.62 in 1.8 mi South 3.5 mph - N/A   Partly Cloudy
4:08 AM 35.6 °F - 33.8 °F 93% 29.61 in 2.5 mi East 1.2 mph - N/A   Partly Cloudy
4:13 AM 35.6 °F - 33.8 °F 93% 29.61 in 4.0 mi Calm Calm - N/A   Clear
4:58 AM 37.2 °F - 36.9 °F 99% 29.62 in 10.0 mi East 1.2 mph - N/A   Overcast
5:58 AM 36.0 °F - 35.8 °F 99% 29.61 in 5.0 mi East 2.3 mph - N/A   Partly Cloudy
6:08 AM 35.6 °F - 35.6 °F 100% 29.59 in 2.0 mi East 1.2 mph - N/A   Partly Cloudy
6:13 AM 35.6 °F - 35.6 °F 100% 29.58 in 1.2 mi Calm Calm - N/A   Partly Cloudy
6:18 AM 37.4 °F - 35.6 °F 93% 29.58 in 1.8 mi Calm Calm - N/A   Clear
6:23 AM 37.4 °F - 35.6 °F 93% 29.58 in 2.5 mi East 2.3 mph - N/A   Clear
6:28 AM 37.4 °F - 35.6 °F 93% 29.58 in 4.0 mi ESE 2.3 mph - N/A   Clear
6:38 AM 35.6 °F 32.8 °F 35.6 °F 100% 29.58 in 3.0 mi ESE 3.5 mph - N/A   Clear
6:43 AM 35.6 °F 32.8 °F 35.6 °F 100% 29.58 in 2.5 mi ESE 3.5 mph - N/A   Clear
6:48 AM 35.6 °F 32.8 °F 35.6 °F 100% 29.58 in 3.0 mi ESE 3.5 mph - N/A   Clear
6:58 AM 35.1 °F - 34.7 °F 99% 29.60 in 9.0 mi East 2.3 mph - N/A   Partly Cloudy
7:28 AM 35.6 °F - 35.6 °F 100% 29.58 in 1.5 mi ESE 1.2 mph - N/A   Partly Cloudy
7:33 AM 35.6 °F - 35.6 °F 100% 29.58 in 1.0 mi ESE 2.3 mph - N/A   Scattered Clouds
7:38 AM 35.6 °F - 35.6 °F 100% 29.58 in 1.2 mi ESE 1.2 mph - N/A   Mostly Cloudy
7:48 AM 35.6 °F - 35.6 °F 100% 29.58 in 1.5 mi Calm Calm - N/A   Mostly Cloudy
7:53 AM 35.6 °F - 35.6 °F 100% 29.58 in 2.5 mi Calm Calm - N/A   Overcast
7:58 AM 37.4 °F - 37.4 °F 100% 29.60 in 5.0 mi Calm Calm - N/A   Overcast
8:14 AM 37.4 °F - 37.4 °F 100% 29.58 in 10.0 mi Calm Calm - N/A Rain Light Rain
8:58 AM 40.3 °F - 40.3 °F 100% 29.60 in 7.0 mi Calm Calm - 0.02 in Rain Light Rain
9:59 AM 44.6 °F - 44.6 °F 100% 29.59 in 7.0 mi Calm Calm - N/A Rain Light Rain
10:18 AM 44.6 °F - 44.6 °F 100% 29.58 in 10.0 mi North - - N/A   Overcast
10:30 AM 46.4 °F - 46.4 °F 100% 29.59 in 7.0 mi Calm Calm - N/A   Overcast
10:56 AM 46.4 °F 44.3 °F 46.0 °F 99% 29.59 in 7.0 mi East 4.6 mph - 0.01 in Rain Light Rain
10:58 AM 46.4 °F 44.3 °F 46.0 °F 99% 29.60 in 10.0 mi East 4.6 mph - 0.01 in   Overcast
10:59 AM 46.4 °F 44.3 °F 46.4 °F 100% 29.58 in 10.0 mi ESE 4.6 mph - N/A Rain Light Rain
11:58 AM 47.1 °F - 45.1 °F 93% 29.58 in 10.0 mi Variable 2.3 mph - 0.00 in   Overcast
12:03 PM 48.2 °F - 44.6 °F 87% 29.57 in 10.0 mi Variable 2.3 mph - N/A Rain Light Rain
12:12 PM 48.2 °F - 44.6 °F 87% 29.57 in 10.0 mi East 2.3 mph - N/A   Overcast
12:58 PM 49.5 °F - 44.4 °F 83% 29.57 in 10.0 mi Variable 1.2 mph - 0.00 in   Overcast
1:09 PM 50.0 °F - 44.6 °F 82% 29.56 in 10.0 mi SSE 3.5 mph - N/A Rain Light Rain
1:58 PM 49.3 °F - 45.9 °F 88% 29.57 in 10.0 mi SSE 4.6 mph - 0.01 in Rain Light Rain
2:51 PM 50.0 °F - 44.6 °F 82% 29.53 in 10.0 mi Calm Calm - N/A   Mostly Cloudy
2:58 PM 49.3 °F - 45.7 °F 87% 29.55 in 10.0 mi SSE 3.5 mph - 0.01 in   Mostly Cloudy
3:23 PM 50.0 °F - 46.4 °F 87% 29.54 in 10.0 mi South 8.1 mph - N/A Rain Light Rain
3:58 PM 48.6 °F - 47.8 °F 97% 29.56 in 5.0 mi South 11.5 mph - 0.02 in Rain Light Rain
4:46 PM 48.2 °F - 46.4 °F 93% 29.53 in 10.0 mi SE 4.6 mph - N/A   Overcast
4:58 PM 48.0 °F - 46.6 °F 95% 29.55 in 10.0 mi SSE 4.6 mph - 0.04 in   Overcast
5:58 PM 48.0 °F - 47.7 °F 99% 29.54 in 10.0 mi SE 4.6 mph - N/A   Partly Cloudy
6:44 PM 46.4 °F 42.9 °F 44.6 °F 93% 29.53 in 9.0 mi SSW 6.9 mph - N/A Rain Light Rain
6:54 PM 46.4 °F 43.5 °F 44.6 °F 93% 29.53 in 7.0 mi SSW 5.8 mph - N/A Rain Light Rain
6:58 PM 46.9 °F - 45.5 °F 95% 29.55 in 7.0 mi SSW 3.5 mph - 0.01 in Rain Light Rain
7:03 PM 46.4 °F - 46.4 °F 100% 29.53 in 7.0 mi South 1.2 mph - N/A Rain Light Rain
7:18 PM 46.4 °F - 46.4 °F 100% 29.53 in 10.0 mi SSE 2.3 mph - N/A   Overcast
7:24 PM 46.4 °F - 46.4 °F 100% 29.53 in 10.0 mi South 2.3 mph - N/A Rain Light Rain
7:44 PM 46.4 °F 45.2 °F 46.4 °F 100% 29.54 in 9.0 mi SSW 3.5 mph - N/A Rain Light Rain
7:54 PM 46.4 °F 45.2 °F 46.4 °F 100% 29.54 in 8.0 mi WSW 3.5 mph - N/A Rain Light Rain
7:58 PM 46.4 °F - 46.4 °F 100% 29.56 in 7.0 mi Variable 1.2 mph - 0.03 in Rain Rain
8:16 PM 46.4 °F 43.5 °F 44.6 °F 93% 29.54 in 10.0 mi South 5.8 mph - N/A   Mostly Cloudy
8:18 PM 46.4 °F 43.5 °F 44.6 °F 93% 29.54 in 10.0 mi South 5.8 mph - N/A Rain Light Rain
8:32 PM 44.6 °F 41.4 °F 44.6 °F 100% 29.55 in 10.0 mi South 5.8 mph - N/A   Mostly Cloudy
8:35 PM 44.6 °F 41.4 °F 44.6 °F 100% 29.55 in 10.0 mi SSE 5.8 mph - N/A Rain Light Rain
8:45 PM 44.6 °F 40.7 °F 44.6 °F 100% 29.55 in 10.0 mi SSW 6.9 mph - N/A   Mostly Cloudy
8:58 PM 45.3 °F 40.6 °F 44.1 °F 95% 29.57 in 10.0 mi SSW 9.2 mph - 0.01 in   Mostly Cloudy
9:58 PM 42.8 °F 40.1 °F 42.6 °F 99% 29.58 in 10.0 mi South 4.6 mph - N/A   Mostly Cloudy
10:58 PM 43.0 °F 38.8 °F 42.8 °F 99% 29.57 in 10.0 mi South 6.9 mph - N/A   Partly Cloudy
11:58 PM 42.8 °F 41.1 °F 42.4 °F 99% 29.60 in 10.0 mi South 3.5 mph - N/A   Mostly Cloudy